CZ-6A DEB, 54452

Orbit data source: Space-Track

CZ-6A DEB, 54452 is space debris in SSO originally from a launch on Fri, 11 Nov 2022 UTC launched from the Taiyaun Space Center, China (TSC). Debris objects in space refer to the collection of defunct objects orbiting the Earth. Examples of debris include non-operational satellites, rocket bodies, and fragments generated from explosions, collisions, or faulty payload assembly.

Loading next visibility...
Identifier
54452, 2022-151GC
Orbit
SSO
Country
Flag of CNCN / PRC
Related business
Manufacturer
SAST
Mission
Spacecraft
Bus & Motor
Unknown
Mass
Unknown
Launch date (UTC)
2022-11-11 (3 years ago)
Launch vehicle
Unknown
Launch site
Taiyaun Space Center, China (TSC)
Object type
Payload
Rocket body
Debris
Shape & HBR
Unknown shape, 0.1 m
Radar Cross Section
Small (<0.1 m²)

Expand to show TLE details & history
Last TLE update: 18 hours ago

TLE from 18 hours ago
0 CZ-6A DEB
1 54452U 22151GC  25348.87691692  .00000162  00000-0  15500-3 0  9994
2 54452  98.9617 319.5666 0148733 225.2110 133.6874 13.88986243156463
Epoch: 2025-12-14T21:02Z
TLE epoch observation values (Epoch: 2025-12-14T21:02:45.621Z)
Latitude
-0.00009°
Longitude
-79.90701°
Altitude
1,010.998 km
Speed
7.308 km/s
True Right ascension
21h 18m 15s
True Declination
0° 00' 00"
Sunlit
Object was in daylight at epoch
Visualization orbit readout
Latitude
Unknown
Longitude
Unknown
Altitude
Unknown
Speed
Unknown
Apparent Right ascension
Unknown
Apparent Declination
Unknown
Sunlit
N/A
Visualization observer readout
Local Sidereal Time
13:18:59
Azimuth
Unknown
Elevation
Unknown
Doppler factor
Unknown
Orbital elements
Apogee altitude
1,038.084 km
Perigee altitude
820.71 km
Semi-major axis
7,307.534 km
Eccentricity
0.01487
Inclination
98.9617°
RAAN
319.5666°
Arg. of periapsis
225.211°
True anomaly
134.90413°
Mean anomaly
133.6874°
Eccentric anomaly
134.29732°
Mean motion
3.47446 °/min
Orbital period
103.61 mins
BSTAR
0.000155
Loading maneuver chart data...
Computing Atmospheric mass density...
Loading historical data...
Loading historical data...
Loading historical data...
Loading historical data...
Loading historical data...
Loading historical data...
Loading historical data...

Documentation

Showing up to 5 results
|